Taos, NM

2:36 PM MST on January 23, 2017 (GMT -0700)
Taos Municipal

Weather History for KSKX - January, 2012

Change the Weather History Date:

Friday, January 13, 2012

  Actual Average Record
Temperature  
Mean Temperature 21 °F -  
Max Temperature 41 °F 40 °F 53 °F (2000)
Min Temperature 1 °F 10 °F -14 °F (2013)
Degree Days  
Heating Degree Days 44    
Moisture  
Dew Point 1 °F    
Average Humidity 51    
Maximum Humidity 85    
Minimum Humidity 21    
Precipitation  
Precipitation 0.00 in - - ()
Sea Level Pressure  
Sea Level Pressure 30.24 in    
Wind  
Wind Speed 4 mph (NNW)    
Max Wind Speed 13 mph    
Max Gust Speed 17 mph    
Visibility 10 miles    
Events      
Averages and records for this station are not official NWS values.
T = Trace of Precipitation, MM = Missing Value Source: NWS Daily Summary

Daily Weather History Graph

Daily Weather History Graph

Search for Another Location

Airport or City:

Trip Planner

Search our weather history database for the weather conditions in past years. The results will help you decide how hot, cold, wet, or windy it might be!

Date:

Astronomy

Jan. 13, 2012 Rise Set
Actual Time 7:14 AM MST 5:08 PM MST
Civil Twilight 6:46 AM MST 5:36 PM MST
Nautical Twilight 6:14 AM MST 6:08 PM MST
Astronomical Twilight 5:43 AM MST 6:39 PM MST
Moon 10:13 PM MST (1/13) 9:39 AM MST (1/13)
Length of Visible Light 10h 50m
Length of Day
9h 54m
Waning Gibbous, 78% of the Moon is Illuminated
Jan 13
Waning Gibbous
Jan 16
Last Quarter
Jan 23
New
Jan 30
First Quarter
Feb 7
Full

Hourly Weather History & Observations

Time (MST) Temp. Windchill Dew Point Humidity Pressure Visibility Wind Dir Wind Speed Gust Speed Precip Events Conditions
12:15 AM 8.6 °F -1.3 °F -0.4 °F 67% 30.15 in 10.0 mi North 5.8 mph - N/A   Clear
12:35 AM 8.6 °F -1.3 °F -0.4 °F 67% 30.17 in 10.0 mi NNE 5.8 mph - N/A   Clear
12:55 AM 8.6 °F 2.0 °F -0.4 °F 67% 30.17 in 10.0 mi ESE 3.5 mph - N/A   Clear
1:15 AM 8.6 °F - 3.2 °F 79% 30.18 in 10.0 mi Calm Calm - N/A   Clear
1:35 AM 8.6 °F 2.0 °F 1.4 °F 73% 30.19 in 10.0 mi NE 3.5 mph - N/A   Clear
1:55 AM 6.8 °F -2.0 °F -0.4 °F 72% 30.20 in 10.0 mi North 4.6 mph - N/A   Clear
2:15 AM 6.8 °F -5.9 °F -2.2 °F 67% 30.21 in 10.0 mi North 8.1 mph - N/A   Clear
2:35 AM 6.8 °F -2.0 °F -0.4 °F 72% 30.21 in 10.0 mi NNE 4.6 mph - N/A   Clear
2:55 AM 8.6 °F 2.0 °F -0.4 °F 67% 30.21 in 10.0 mi ENE 3.5 mph - N/A   Clear
3:15 AM 8.6 °F - -0.4 °F 67% 30.21 in 10.0 mi Calm Calm - N/A   Clear
3:35 AM 6.8 °F - -2.2 °F 67% 30.22 in 10.0 mi Calm Calm - N/A   Clear
3:55 AM 5.0 °F - -2.2 °F 72% 30.21 in 10.0 mi Calm Calm - N/A   Clear
4:15 AM 6.8 °F -0.1 °F -0.4 °F 72% 30.22 in 10.0 mi North 3.5 mph - N/A   Clear
4:35 AM 6.8 °F -3.5 °F -2.2 °F 67% 30.22 in 10.0 mi North 5.8 mph - N/A   Clear
4:55 AM 5.0 °F -5.6 °F -2.2 °F 72% 30.22 in 10.0 mi North 5.8 mph - N/A   Clear
5:15 AM 3.2 °F -9.1 °F -5.8 °F 66% 30.23 in 10.0 mi North 6.9 mph - N/A   Clear
5:35 AM 3.2 °F -7.8 °F -2.2 °F 78% 30.24 in 10.0 mi North 5.8 mph - N/A   Clear
5:55 AM 3.2 °F -9.1 °F -2.2 °F 78% 30.24 in 10.0 mi NE 6.9 mph - N/A   Clear
6:15 AM 3.2 °F -10.3 °F -4.0 °F 72% 30.25 in 10.0 mi NE 8.1 mph - N/A   Clear
6:35 AM 6.8 °F -4.8 °F -0.4 °F 72% 30.25 in 10.0 mi NE 6.9 mph - N/A   Clear
7:15 AM 1.4 °F -9.9 °F -7.6 °F 66% 30.26 in 10.0 mi North 5.8 mph - N/A   Clear
7:35 AM 1.4 °F -11.3 °F -2.2 °F 85% 30.28 in 10.0 mi North 6.9 mph - N/A   Clear
7:55 AM 5.0 °F -5.6 °F -0.4 °F 78% 30.28 in 10.0 mi North 5.8 mph - N/A   Clear
8:15 AM 8.6 °F - 1.4 °F 73% 30.28 in 10.0 mi Calm Calm - N/A   Clear
8:35 AM 10.4 °F - 1.4 °F 67% 30.29 in 10.0 mi Calm Calm - N/A   Clear
8:55 AM 17.6 °F - 8.6 °F 68% 30.30 in 10.0 mi Calm Calm - N/A   Clear
9:15 AM 17.6 °F 9.3 °F 6.8 °F 63% 30.30 in 10.0 mi NW 5.8 mph - N/A   Clear
9:35 AM 19.4 °F 14.3 °F 3.2 °F 49% 30.30 in 10.0 mi NNW 3.5 mph - N/A   Clear
9:55 AM 21.2 °F 14.9 °F 5.0 °F 50% 30.30 in 10.0 mi NNW 4.6 mph - N/A   Clear
10:15 AM 24.8 °F 20.5 °F 3.2 °F 40% 30.29 in 10.0 mi NNW 3.5 mph - N/A   Clear
10:35 AM 26.6 °F 20.0 °F 5.0 °F 40% 30.30 in 10.0 mi NW 5.8 mph - N/A   Clear
10:55 AM 28.4 °F 23.3 °F 3.2 °F 34% 30.30 in 10.0 mi NW 4.6 mph - N/A   Clear
11:15 AM 28.4 °F 23.3 °F 3.2 °F 34% 30.29 in 10.0 mi NNW 4.6 mph - N/A   Clear
11:35 AM 30.2 °F 26.7 °F -0.4 °F 27% 30.28 in 10.0 mi NW 3.5 mph - N/A   Clear
12:15 PM 33.8 °F - 1.4 °F 25% 30.26 in 10.0 mi Calm Calm - N/A   Clear
12:35 PM 35.6 °F - 1.4 °F 24% 30.25 in 10.0 mi Calm Calm - N/A   Clear
12:55 PM 35.6 °F 29.9 °F 1.4 °F 24% 30.24 in 10.0 mi SW 6.9 mph - N/A   Clear
1:15 PM 35.6 °F - 1.4 °F 24% 30.23 in 10.0 mi Calm Calm - N/A   Clear
1:35 PM 37.4 °F - 1.4 °F 22% 30.22 in 10.0 mi Calm Calm - N/A   Clear
1:55 PM 37.4 °F - 1.4 °F 22% 30.22 in 10.0 mi Calm Calm - N/A   Clear
2:15 PM 39.2 °F 35.9 °F 3.2 °F 22% 30.22 in 10.0 mi WSW 4.6 mph - N/A   Clear
2:35 PM 39.2 °F 33.6 °F 3.2 °F 22% 30.22 in 10.0 mi WSW 8.1 mph - N/A   Clear
2:55 PM 39.2 °F 31.6 °F 3.2 °F 22% 30.22 in 10.0 mi SW 12.7 mph - N/A   Clear
3:15 PM 41.0 °F 36.4 °F 5.0 °F 23% 30.23 in 10.0 mi West 6.9 mph 16.1 mph N/A   Clear
3:35 PM 41.0 °F 35.2 °F 3.2 °F 21% 30.23 in 10.0 mi West 9.2 mph 17.3 mph N/A   Clear
3:55 PM 39.2 °F 37.0 °F 3.2 °F 22% 30.23 in 10.0 mi WNW 3.5 mph - N/A   Clear
4:15 PM 39.2 °F 32.0 °F 3.2 °F 22% 30.23 in 10.0 mi WSW 11.5 mph - N/A   Clear
4:35 PM 35.6 °F 28.6 °F 3.2 °F 26% 30.23 in 10.0 mi West 9.2 mph - N/A   Clear
4:55 PM 33.8 °F 27.7 °F 3.2 °F 28% 30.25 in 10.0 mi WSW 6.9 mph - N/A   Clear
5:15 PM 33.8 °F - 3.2 °F 28% 30.25 in 10.0 mi Calm Calm - N/A   Clear
5:35 PM 30.2 °F - 3.2 °F 32% 30.25 in 10.0 mi Calm Calm - N/A   Clear
5:55 PM 30.2 °F 26.7 °F 3.2 °F 32% 30.27 in 10.0 mi South 3.5 mph - N/A   Clear
6:15 PM 30.2 °F - 3.2 °F 32% 30.27 in 10.0 mi Calm Calm - N/A   Clear
6:35 PM 28.4 °F 21.2 °F 3.2 °F 34% 30.28 in 10.0 mi SSW 6.9 mph - N/A   Clear
7:15 PM 17.6 °F 8.2 °F 6.8 °F 63% 30.29 in 10.0 mi WNW 6.9 mph - N/A   Clear
7:35 PM 17.6 °F 9.3 °F 6.8 °F 63% 30.30 in 10.0 mi NW 5.8 mph - N/A   Clear
7:55 PM 17.6 °F 8.2 °F 8.6 °F 68% 30.30 in 10.0 mi NNW 6.9 mph - N/A   Clear
8:15 PM 17.6 °F 10.7 °F 6.8 °F 63% 30.30 in 10.0 mi NNW 4.6 mph - N/A   Clear
8:55 PM 17.6 °F 12.3 °F 8.6 °F 68% 30.33 in 10.0 mi North 3.5 mph - N/A   Clear
9:35 PM 14.0 °F 6.5 °F 3.2 °F 62% 30.35 in 10.0 mi North 4.6 mph - N/A   Clear
9:55 PM 14.0 °F 6.5 °F 5.0 °F 67% 30.35 in 10.0 mi North 4.6 mph - N/A   Clear
10:15 PM 15.8 °F 7.2 °F 6.8 °F 68% 30.35 in 10.0 mi NE 5.8 mph - N/A   Clear
10:35 PM 15.8 °F 8.6 °F 6.8 °F 68% 30.36 in 10.0 mi ENE 4.6 mph - N/A   Clear
10:55 PM 15.8 °F 5.1 °F 3.2 °F 58% 30.35 in 10.0 mi ESE 8.1 mph - N/A   Clear
11:15 PM 14.0 °F 6.5 °F 3.2 °F 62% 30.35 in 10.0 mi SE 4.6 mph - N/A   Clear
11:35 PM 10.4 °F - 1.4 °F 67% 30.35 in 10.0 mi Calm Calm - N/A   Clear
11:55 PM 10.4 °F -1.5 °F 1.4 °F 67% 30.35 in 10.0 mi North 8.1 mph - N/A   Clear